Weather History for Whitefield, NH

Change the Weather History Date:

Monday, May 20, 2013

  Actual Average Record
Temperature  
Mean Temperature 58 °F -  
Max Temperature 68 °F 63 °F 88 °F (2012)
Min Temperature 48 °F 36 °F 21 °F (2002)
Degree Days  
Heating Degree Days 7    
Growing Degree Days 8 (Base 50)    
Moisture  
Dew Point 53 °F    
Average Humidity 88    
Maximum Humidity 94    
Minimum Humidity 66    
Precipitation  
Precipitation 0.46 in - - ()
Sea Level Pressure  
Sea Level Pressure 30.02 in    
Wind  
Wind Speed 1 mph (WSW)    
Max Wind Speed 7 mph    
Max Gust Speed -    
Visibility 6 miles    
Events Fog , Rain    
Averages and records for this station are not official NWS values.
T = Trace of Precipitation, MM = Missing Value Source: NWS Daily Summary

Daily Weather History Graph

Daily Weather History Graph

Search for Another Location

Airport:

Trip Planner

Search our weather history database for the weather conditions in past years. The results will help you decide how hot, cold, wet, or windy it might be!

Date:

Astronomy

May. 20, 2013 Rise Set
Actual Time 5:13 AM EDT 8:12 PM EDT
Civil Twilight 4:39 AM EDT 8:46 PM EDT
Nautical Twilight 3:55 AM EDT 9:30 PM EDT
Astronomical Twilight 3:03 AM EDT 10:23 PM EDT
Moon 3:06 PM EDT (5/20) 2:18 AM EDT (5/20)
Length of Visible Light 16h 07m
Length of Day
14h 58m
Waxing Gibbous, 75% of the Moon is Illuminated
May 20
Waxing Gibbous
May 25
Full
May 31
Last Quarter
Jun 8
New
Jun 16
First Quarter

Hourly Weather History & Observations

Time (EDT) Temp. Dew Point Humidity Pressure Visibility Wind Dir Wind Speed Gust Speed Precip Events Conditions
12:52 AM 54.0 °F 51.1 °F 90% 30.12 in 10.0 mi WNW 4.6 mph - 0.00 in   Overcast
1:34 AM 53.6 °F 50.0 °F 88% 30.09 in 2.5 mi WSW 3.5 mph - 0.07 in Rain Rain
1:41 AM 53.6 °F 50.0 °F 88% 30.09 in 4.0 mi Calm Calm - 0.08 in Rain Light Rain
1:52 AM 54.0 °F 51.1 °F 90% 30.10 in 5.0 mi Calm Calm - 0.09 in Rain Light Rain
2:11 AM 53.6 °F 51.8 °F 94% 30.09 in 7.0 mi WNW 4.6 mph - 0.03 in Rain Light Rain
2:52 AM 53.1 °F 51.1 °F 93% 30.08 in 8.0 mi Calm Calm - 0.09 in Rain Light Rain
3:52 AM 53.1 °F 51.1 °F 93% 30.05 in 10.0 mi Calm Calm - 0.00 in   Overcast
4:52 AM 53.1 °F 51.1 °F 93% 30.03 in 10.0 mi Calm Calm - N/A   Overcast
5:52 AM 53.1 °F 51.1 °F 93% 30.02 in 10.0 mi Calm Calm - 0.02 in   Overcast
6:22 AM 53.6 °F 51.8 °F 94% 30.02 in 1.8 mi Calm Calm - 0.04 in Rain Rain
6:32 AM 53.6 °F 51.8 °F 94% 30.01 in 3.0 mi Calm Calm - 0.06 in Rain Light Rain
6:52 AM 54.0 °F 51.1 °F 90% 30.02 in 10.0 mi Calm Calm - 0.07 in   Overcast
7:19 AM 53.6 °F 51.8 °F 94% 30.01 in 10.0 mi Calm Calm - N/A   Overcast
7:38 AM 53.6 °F 51.8 °F 94% 30.02 in 2.5 mi Calm Calm - 0.03 in Rain Rain
7:47 AM 53.6 °F 51.8 °F 94% 30.02 in 7.0 mi Calm Calm - 0.03 in Rain Light Rain
7:52 AM 54.0 °F 52.0 °F 93% 30.03 in 10.0 mi Calm Calm - 0.03 in Rain Light Rain
8:19 AM 55.4 °F 51.8 °F 88% 30.02 in 10.0 mi Calm Calm - 0.01 in Rain Light Rain
8:37 AM 55.4 °F 51.8 °F 88% 30.02 in 10.0 mi Calm Calm - 0.01 in   Overcast
8:52 AM 55.0 °F 53.1 °F 93% 30.04 in 10.0 mi Calm Calm - 0.01 in   Overcast
9:30 AM 55.4 °F 53.6 °F 94% 30.03 in 8.0 mi Calm Calm - 0.00 in Rain Light Rain
9:48 AM 55.4 °F 53.6 °F 94% 30.03 in 2.0 mi Calm Calm - 0.07 in Rain Light Rain
9:52 AM 55.9 °F 53.1 °F 90% 30.04 in 2.5 mi Calm Calm - 0.08 in Rain Rain
10:18 AM 57.2 °F 53.6 °F 88% 30.03 in 3.0 mi Calm Calm - 0.05 in Rain Light Rain
10:32 AM 57.2 °F 53.6 °F 88% 30.03 in 4.0 mi Calm Calm - 0.07 in Rain Light Rain
10:43 AM 57.2 °F 55.4 °F 94% 30.02 in 10.0 mi Calm Calm - 0.07 in Rain Light Rain
10:52 AM 57.9 °F 55.0 °F 90% 30.03 in 10.0 mi Calm Calm - 0.07 in   Overcast
11:31 AM 59.0 °F 55.4 °F 88% 30.02 in 10.0 mi Calm Calm - N/A   Overcast
11:52 AM 60.1 °F 55.9 °F 86% 30.02 in 10.0 mi Calm Calm - N/A   Overcast
12:30 PM 60.8 °F 57.2 °F 88% 30.00 in 3.0 mi Calm Calm - N/A   Overcast
12:52 PM 60.1 °F 57.0 °F 90% 30.01 in 7.0 mi Calm Calm - N/A   Overcast
1:14 PM 60.8 °F 57.2 °F 88% 30.00 in 10.0 mi WSW 3.5 mph - N/A   Overcast
1:52 PM 63.0 °F 57.9 °F 84% 30.01 in 10.0 mi West 4.6 mph - N/A   Overcast
2:43 PM 64.4 °F 57.2 °F 77% 30.00 in 10.0 mi WSW 5.8 mph - N/A   Overcast
2:52 PM 64.9 °F 57.9 °F 78% 30.00 in 10.0 mi West 4.6 mph - N/A   Overcast
3:02 PM 64.4 °F 57.2 °F 77% 30.00 in 10.0 mi WSW 5.8 mph - N/A   Overcast
3:52 PM 66.9 °F 57.9 °F 73% 29.98 in 10.0 mi South 5.8 mph - N/A   Scattered Clouds
4:52 PM 66.9 °F 57.0 °F 70% 30.00 in 10.0 mi SW 6.9 mph - N/A   Scattered Clouds
5:52 PM 68.0 °F 57.0 °F 68% 29.99 in 10.0 mi WSW 6.9 mph - N/A   Partly Cloudy
6:52 PM 66.9 °F 55.0 °F 66% 30.01 in 10.0 mi WSW 4.6 mph - N/A   Clear
7:52 PM 64.0 °F 57.0 °F 78% 29.99 in 10.0 mi Calm Calm - N/A   Clear
8:52 PM 59.0 °F 55.9 °F 90% 30.00 in 10.0 mi Calm Calm - N/A   Clear
9:52 PM 54.0 °F 51.1 °F 90% 30.02 in 8.0 mi Calm Calm - N/A   Clear
10:22 PM 53.6 °F 51.8 °F 94% 30.01 in 1.5 mi Calm Calm - N/A   Partly Cloudy
10:31 PM 53.6 °F 50.0 °F 88% 30.01 in 1.0 mi Calm Calm - N/A   Mist
10:38 PM 51.8 °F 48.2 °F 88% 30.01 in 1.2 mi Calm Calm - N/A   Scattered Clouds
10:46 PM 51.8 °F 48.2 °F 88% 30.00 in 2.0 mi Calm Calm - N/A   Mostly Cloudy
10:49 PM 51.8 °F 48.2 °F 88% 30.00 in 1.0 mi Calm Calm - N/A   Mist
10:52 PM 51.1 °F 48.9 °F 92% 30.01 in 0.8 mi Calm Calm - N/A   Mist
11:28 PM 50.0 °F 46.4 °F 87% 30.00 in 1.5 mi Calm Calm - N/A   Mostly Cloudy
11:30 PM 50.0 °F 46.4 °F 87% 30.00 in 4.0 mi Calm Calm - N/A   Mostly Cloudy
11:40 PM 50.0 °F 46.4 °F 87% 30.01 in 1.0 mi Calm Calm - N/A   Mist
11:47 PM 48.2 °F 46.4 °F 93% 30.01 in 0.5 mi Calm Calm - N/A Fog Fog
11:52 PM 48.0 °F 46.0 °F 93% 30.02 in 0.5 mi Calm Calm - N/A Fog Fog